• In Netherlands
  • List of Countries
  • For 7 days
  • Water Temperature
  • Satellite Maps
  • Weather Map
  • Weather Widgets
  • user-avatar
    Login

    Hourly Weather Albena

    Today, 24 May, Wednesday

    Time Temperature Precipitation Wind Pressure Humidity
    00:00 +10°C° 0 mm 1 mps 749 mmHg 84%
    01:00 +9°C° 0 mm 1 mps 748 mmHg 84%
    02:00 +9°C° 0 mm 1 mps 748 mmHg 82%
    03:00 +9°C° 0 mm 1 mps 748 mmHg 82%
    04:00 +8°C° 0 mm 1 mps 748 mmHg 82%
    05:00 +7°C° 0 mm 0 mps 748 mmHg 82%
    06:00 +11°C° 0 mm 1 mps 748 mmHg 74%
    07:00 +14°C° 0 mm 1 mps 748 mmHg 65%
    08:00 +18°C° 0 mm 1 mps 748 mmHg 55%
    09:00 +18°C° 0 mm 2 mps 748 mmHg 53%
    10:00 +19°C° 0 mm 2 mps 748 mmHg 51%
    11:00 +19°C° 0 mm 2 mps 748 mmHg 50%
    12:00 +20°C° 0 mm 3 mps 748 mmHg 51%
    13:00 +20°C° 0 mm 3 mps 748 mmHg 52%
    14:00 +20°C° 0 mm 3 mps 748 mmHg 53%
    15:00 +19°C° 0 mm 3 mps 747 mmHg 56%
    16:00 +19°C° 0 mm 4 mps 747 mmHg 60%
    17:00 +18°C° 0 mm 4 mps 747 mmHg 64%
    18:00 +15°C° 0 mm 4 mps 746 mmHg 72%
    19:00 +13°C° 0 mm 3 mps 746 mmHg 80%
    20:00 +11°C° 0 mm 3 mps 746 mmHg 88%
    21:00 +10°C° 0 mm 3 mps 746 mmHg 88%
    22:00 +10°C° 0 mm 3 mps 747 mmHg 89%
    23:00 +9°C° 0 mm 3 mps 747 mmHg 90%

    Tomorrow, 25 May, Thursday

    Time Temperature Precipitation Wind Pressure Humidity
    00:00 +9°C° 0 mm 3 mps 746 mmHg 90%
    01:00 +9°C° 0 mm 2 mps 746 mmHg 91%
    02:00 +9°C° 0 mm 2 mps 746 mmHg 91%
    03:00 +9°C° 0 mm 2 mps 746 mmHg 91%
    04:00 +9°C° 0 mm 2 mps 746 mmHg 91%
    05:00 +9°C° 0 mm 2 mps 745 mmHg 91%
    06:00 +11°C° 0 mm 3 mps 745 mmHg 85%
    07:00 +13°C° 0 mm 3 mps 746 mmHg 79%
    08:00 +16°C° 0 mm 3 mps 746 mmHg 73%
    09:00 +17°C° 0 mm 3 mps 746 mmHg 69%
    10:00 +19°C° 0 mm 3 mps 746 mmHg 65%
    11:00 +20°C° 0 mm 3 mps 746 mmHg 61%
    12:00 +20°C° 0 mm 4 mps 746 mmHg 61%
    13:00 +21°C° 0 mm 4 mps 745 mmHg 62%
    14:00 +21°C° 0 mm 4 mps 745 mmHg 62%
    15:00 +20°C° 0.2 mm 4 mps 745 mmHg 65%
    16:00 +20°C° 0.2 mm 4 mps 744 mmHg 67%
    17:00 +19°C° 0.2 mm 4 mps 744 mmHg 70%
    18:00 +17°C° 0.1 mm 4 mps 744 mmHg 76%
    19:00 +14°C° 0.1 mm 3 mps 744 mmHg 82%
    20:00 +12°C° 0.1 mm 3 mps 744 mmHg 88%
    21:00 +12°C° 0 mm 3 mps 744 mmHg 88%
    22:00 +13°C° 0 mm 2 mps 744 mmHg 88%
    23:00 +13°C° 0 mm 2 mps 745 mmHg 88%

    Day after tomorrow, 26 May, Friday

    Time Temperature Precipitation Wind Pressure Humidity
    00:00 +13°C° 0 mm 1 mps 744 mmHg 88%
    01:00 +12°C° 0 mm 1 mps 744 mmHg 88%
    02:00 +12°C° 0 mm 1 mps 744 mmHg 89%
    03:00 +12°C° 0 mm 1 mps 744 mmHg 88%
    04:00 +12°C° 0 mm 1 mps 744 mmHg 88%
    05:00 +13°C° 0 mm 1 mps 744 mmHg 87%
    06:00 +14°C° 0 mm 1 mps 744 mmHg 83%
    07:00 +15°C° 0 mm 2 mps 744 mmHg 79%
    08:00 +16°C° 0 mm 2 mps 744 mmHg 74%
    09:00 +18°C° 0 mm 2 mps 744 mmHg 70%
    10:00 +19°C° 0 mm 2 mps 745 mmHg 66%
    11:00 +20°C° 0 mm 2 mps 745 mmHg 62%
    12:00 +21°C° 0.2 mm 2 mps 744 mmHg 62%
    13:00 +21°C° 0.2 mm 3 mps 744 mmHg 62%
    14:00 +21°C° 0.2 mm 3 mps 744 mmHg 62%
    15:00 +20°C° 0.3 mm 3 mps 744 mmHg 65%
    16:00 +20°C° 0.3 mm 3 mps 744 mmHg 68%
    17:00 +19°C° 0.3 mm 3 mps 744 mmHg 71%
    18:00 +17°C° 0.1 mm 3 mps 744 mmHg 77%
    19:00 +16°C° 0.1 mm 3 mps 744 mmHg 84%
    20:00 +14°C° 0.1 mm 2 mps 744 mmHg 91%
    21:00 +13°C° 0 mm 2 mps 744 mmHg 92%
    22:00 +12°C° 0 mm 2 mps 744 mmHg 92%
    23:00 +11°C° 0 mm 1 mps 745 mmHg 93%

    27 May, Saturday

    Time Temperature Precipitation Wind Pressure Humidity
    00:00 +10°C° 0 mm 2 mps 744 mmHg 93%
    01:00 +10°C° 0 mm 2 mps 744 mmHg 92%
    02:00 +10°C° 0 mm 2 mps 744 mmHg 91%
    03:00 +10°C° 0 mm 2 mps 744 mmHg 91%
    04:00 +10°C° 0 mm 2 mps 744 mmHg 91%
    05:00 +11°C° 0 mm 3 mps 744 mmHg 91%
    06:00 +13°C° 0 mm 3 mps 745 mmHg 85%
    07:00 +16°C° 0 mm 3 mps 745 mmHg 79%
    08:00 +18°C° 0 mm 3 mps 745 mmHg 74%
    09:00 +19°C° 0 mm 2 mps 745 mmHg 69%
    10:00 +20°C° 0 mm 2 mps 745 mmHg 65%
    11:00 +21°C° 0 mm 2 mps 745 mmHg 61%
    12:00 +21°C° 0.6 mm 2 mps 745 mmHg 62%
    13:00 +23°C° 0.6 mm 2 mps 745 mmHg 63%
    14:00 +23°C° 0.6 mm 2 mps 745 mmHg 65%
    15:00 +21°C° 1.1 mm 2 mps 744 mmHg 67%
    16:00 +21°C° 1.1 mm 2 mps 744 mmHg 69%
    17:00 +21°C° 1.1 mm 2 mps 744 mmHg 72%
    18:00 +19°C° 0.5 mm 2 mps 745 mmHg 77%
    19:00 +17°C° 0.5 mm 2 mps 745 mmHg 83%
    20:00 +15°C° 0.5 mm 1 mps 745 mmHg 88%
    21:00 +15°C° 0.3 mm 1 mps 745 mmHg 89%
    22:00 +15°C° 0.3 mm 2 mps 746 mmHg 89%
    23:00 +14°C° 0.3 mm 2 mps 746 mmHg 90%

    28 May, Sunday

    Time Temperature Precipitation Wind Pressure Humidity
    00:00 +14°C° 0 mm 2 mps 746 mmHg 90%
    01:00 +13°C° 0 mm 3 mps 746 mmHg 91%
    02:00 +13°C° 0 mm 3 mps 746 mmHg 91%
    03:00 +13°C° 0 mm 4 mps 746 mmHg 92%
    04:00 +12°C° 0 mm 5 mps 747 mmHg 92%
    05:00 +12°C° 0 mm 5 mps 747 mmHg 93%
    06:00 +13°C° 0 mm 6 mps 747 mmHg 89%
    07:00 +15°C° 0 mm 6 mps 748 mmHg 85%
    08:00 +16°C° 0 mm 6 mps 748 mmHg 81%
    09:00 +17°C° 0 mm 6 mps 749 mmHg 75%
    10:00 +19°C° 0 mm 6 mps 749 mmHg 69%
    11:00 +21°C° 0 mm 6 mps 750 mmHg 64%
    12:00 +21°C° 0.1 mm 6 mps 750 mmHg 62%
    13:00 +21°C° 0.1 mm 6 mps 750 mmHg 60%
    14:00 +22°C° 0.1 mm 6 mps 750 mmHg 58%
    15:00 +21°C° 0.1 mm 6 mps 750 mmHg 60%
    16:00 +20°C° 0.1 mm 5 mps 750 mmHg 63%
    17:00 +20°C° 0.1 mm 5 mps 751 mmHg 65%
    18:00 +18°C° 0 mm 4 mps 751 mmHg 72%
    19:00 +16°C° 0 mm 3 mps 751 mmHg 79%
    20:00 +13°C° 0 mm 3 mps 752 mmHg 86%
    21:00 +13°C° 0 mm 2 mps 752 mmHg 88%
    22:00 +12°C° 0 mm 2 mps 753 mmHg 90%
    23:00 +10°C° 0 mm 2 mps 753 mmHg 91%

    29 May, Monday

    Time Temperature Precipitation Wind Pressure Humidity
    00:00 +9°C° 0 mm 2 mps 753 mmHg 91%
    01:00 +9°C° 0 mm 2 mps 753 mmHg 91%
    02:00 +8°C° 0 mm 2 mps 753 mmHg 91%
    03:00 +8°C° 0 mm 2 mps 753 mmHg 91%
    04:00 +9°C° 0 mm 2 mps 753 mmHg 90%
    05:00 +9°C° 0 mm 2 mps 753 mmHg 90%
    06:00 +12°C° 0 mm 2 mps 754 mmHg 80%
    07:00 +15°C° 0 mm 2 mps 754 mmHg 70%
    08:00 +17°C° 0 mm 2 mps 754 mmHg 61%
    09:00 +18°C° 0 mm 2 mps 754 mmHg 58%
    10:00 +19°C° 0 mm 2 mps 754 mmHg 56%
    11:00 +20°C° 0 mm 3 mps 754 mmHg 53%
    12:00 +20°C° 0 mm 3 mps 754 mmHg 54%
    13:00 +20°C° 0 mm 4 mps 754 mmHg 54%
    14:00 +21°C° 0 mm 4 mps 753 mmHg 54%
    15:00 +20°C° 0 mm 4 mps 753 mmHg 56%
    16:00 +19°C° 0 mm 4 mps 753 mmHg 58%
    17:00 +18°C° 0 mm 4 mps 752 mmHg 61%
    18:00 +15°C° 0 mm 4 mps 752 mmHg 66%
    19:00 +13°C° 0 mm 3 mps 752 mmHg 71%
    20:00 +11°C° 0 mm 3 mps 752 mmHg 76%
    21:00 +11°C° 0 mm 3 mps 752 mmHg 76%
    22:00 +10°C° 0 mm 3 mps 752 mmHg 76%
    23:00 +10°C° 0 mm 2 mps 751 mmHg 77%
    Show more